ANA166 RJFU-RJOO

Flight info

Callsign ANA166
Flight time 0h 49m
Altitude 35000
Route CHIKU5 OOITA Y23 SPIDE Y231 MIRIO Y401 KAINA Y753 IZUMI HABIK
Aircraft B77W/H-SDE1E2E3FGHIJ2J3J4J5M1RWXY/LB1D1

Departure

Time 2026-04-29 18:39
Airport Nagasaki Airport (RJFU)

Arrival

Time 2026-04-29 19:28
Airport Osaka Itami International Airport (RJOO)
Time Latitude Longitude Altitude Speed Heading
2026-04-29 18:11 32.91559 129.91975 50 ft 0 kts 48°
2026-04-29 18:28 32.91558 129.91974 20 ft 2 kts 48°
2026-04-29 18:29 32.91541 129.91952 31 ft 4 kts 48°
2026-04-29 18:29 32.91529 129.91936 26 ft 4 kts 48°
2026-04-29 18:29 32.91505 129.91904 30 ft 4 kts 48°
2026-04-29 18:29 32.91490 129.91883 28 ft 4 kts 44°
2026-04-29 18:30 32.91470 129.91871 25 ft 4 kts 344°
2026-04-29 18:30 32.91447 129.91886 27 ft 4 kts 318°
2026-04-29 18:30 32.91436 129.91898 27 ft 1 kts 318°
2026-04-29 18:30 32.91435 129.91899 27 ft 1 kts 318°
2026-04-29 18:33 32.91436 129.91898 27 ft 0 kts 318°
2026-04-29 18:34 32.91486 129.91845 27 ft 20 kts 319°
2026-04-29 18:34 32.91522 129.91807 28 ft 21 kts 318°
2026-04-29 18:34 32.91701 129.91616 26 ft 21 kts 317°
2026-04-29 18:34 32.91806 129.91503 26 ft 20 kts 318°
2026-04-29 18:35 32.91910 129.91392 25 ft 20 kts 318°
2026-04-29 18:35 32.92013 129.91283 24 ft 20 kts 318°
2026-04-29 18:35 32.92116 129.91173 28 ft 20 kts 318°
2026-04-29 18:35 32.92219 129.91063 27 ft 20 kts 317°
2026-04-29 18:36 32.92320 129.90955 26 ft 20 kts 318°
2026-04-29 18:36 32.92423 129.90846 27 ft 20 kts 318°
2026-04-29 18:36 32.92526 129.90737 26 ft 20 kts 318°
2026-04-29 18:36 32.92628 129.90627 25 ft 20 kts 318°
2026-04-29 18:37 32.92722 129.90526 28 ft 14 kts 317°
2026-04-29 18:37 32.92778 129.90441 27 ft 12 kts 287°
2026-04-29 18:37 32.92748 129.90352 27 ft 12 kts 226°
2026-04-29 18:37 32.92701 129.90300 30 ft 8 kts 211°
2026-04-29 18:38 32.92666 129.90307 28 ft 9 kts 144°
2026-04-29 18:38 32.92647 129.90328 30 ft 0 kts 137°
2026-04-29 18:38 32.92492 129.90498 27 ft 77 kts 138°
2026-04-29 18:39 32.91854 129.91176 28 ft 164 kts 137°
2026-04-29 18:39 32.91239 129.91840 362 ft 179 kts 137°
2026-04-29 18:39 32.90335 129.92804 1405 ft 178 kts 137°
2026-04-29 18:39 32.89372 129.93833 2206 ft 193 kts 136°
2026-04-29 18:40 32.88307 129.94970 2694 ft 221 kts 136°
2026-04-29 18:40 32.87093 129.96275 3175 ft 249 kts 137°
2026-04-29 18:40 32.85741 129.97718 3818 ft 271 kts 138°
2026-04-29 18:40 32.84296 129.99252 4697 ft 284 kts 139°
2026-04-29 18:41 32.79835 130.03992 8022 ft 290 kts 143°
2026-04-29 18:41 32.78306 130.05591 8856 ft 301 kts 144°
2026-04-29 18:42 32.76717 130.07251 9852 ft 306 kts 144°
2026-04-29 18:42 32.75111 130.08945 10796 ft 311 kts 145°
2026-04-29 18:42 32.73434 130.10706 11450 ft 331 kts 146°
2026-04-29 18:42 32.71685 130.12615 11956 ft 357 kts 137°
2026-04-29 18:43 32.70384 130.15334 12368 ft 402 kts 111°
2026-04-29 18:43 32.70083 130.18643 13451 ft 418 kts 87°
2026-04-29 18:43 32.70845 130.22023 14459 ft 430 kts 63°
2026-04-29 18:43 32.72611 130.24869 15620 ft 427 kts 39°
2026-04-29 18:44 32.75057 130.26814 16633 ft 424 kts 18°
2026-04-29 18:44 32.77836 130.27862 17109 ft 416 kts
2026-04-29 18:44 32.80677 130.27851 17488 ft 401 kts 344°
2026-04-29 18:44 32.83463 130.27467 18149 ft 412 kts 349°
2026-04-29 18:45 32.86351 130.27481 19221 ft 417 kts 354°
2026-04-29 18:45 32.89287 130.27753 20078 ft 430 kts
2026-04-29 18:45 32.92272 130.28379 20923 ft 439 kts
2026-04-29 18:45 32.95143 130.29906 21610 ft 467 kts 31°
2026-04-29 18:46 32.97478 130.32671 22473 ft 482 kts 53°
2026-04-29 18:46 32.98995 130.36257 23412 ft 489 kts 73°
2026-04-29 18:46 32.99757 130.40199 24077 ft 492 kts 79°
2026-04-29 18:46 33.00394 130.44184 24658 ft 500 kts 80°
2026-04-29 18:47 33.01051 130.48303 25257 ft 508 kts 79°
2026-04-29 18:47 33.01743 130.52459 25972 ft 513 kts 79°
2026-04-29 18:47 33.02470 130.56636 26699 ft 517 kts 78°
2026-04-29 18:47 33.03219 130.60850 27372 ft 522 kts 78°
2026-04-29 18:48 33.03978 130.65116 28004 ft 528 kts 78°
2026-04-29 18:48 33.04740 130.69435 28631 ft 534 kts 78°
2026-04-29 18:48 33.05494 130.73736 29255 ft 540 kts 78°
2026-04-29 18:48 33.06265 130.78147 29858 ft 546 kts 78°
2026-04-29 18:49 33.07040 130.82594 30412 ft 551 kts 78°
2026-04-29 18:49 33.07822 130.87086 30900 ft 555 kts 78°
2026-04-29 18:49 33.08607 130.91613 31388 ft 559 kts 78°
2026-04-29 18:49 33.09394 130.96153 32006 ft 558 kts 77°
2026-04-29 18:50 33.10177 131.00679 32730 ft 555 kts 77°
2026-04-29 18:50 33.10954 131.05189 33417 ft 553 kts 77°
2026-04-29 18:50 33.11729 131.09689 34074 ft 552 kts 77°
2026-04-29 18:50 33.12491 131.14123 34626 ft 551 kts 77°
2026-04-29 18:51 33.13261 131.18608 35071 ft 552 kts 77°
2026-04-29 18:51 33.14034 131.23124 35036 ft 555 kts 77°
2026-04-29 18:51 33.15567 131.32116 35047 ft 549 kts 77°
2026-04-29 18:52 33.17069 131.40971 35044 ft 546 kts 77°
2026-04-29 18:52 33.18572 131.49863 35051 ft 545 kts 77°
2026-04-29 18:53 33.20069 131.58761 35036 ft 546 kts 77°
2026-04-29 18:53 33.21559 131.67659 35040 ft 546 kts 77°
2026-04-29 18:54 33.23652 131.76266 35042 ft 541 kts 64°
2026-04-29 18:54 33.26641 131.84515 35051 ft 541 kts 62°
2026-04-29 18:55 33.29635 131.92783 35036 ft 543 kts 64°
2026-04-29 18:55 33.32499 132.01159 35020 ft 544 kts 64°
2026-04-29 18:56 33.35292 132.09511 35058 ft 543 kts 65°
2026-04-29 18:56 33.38108 132.17913 35039 ft 544 kts 64°
2026-04-29 18:57 33.40926 132.26311 35023 ft 543 kts 64°
2026-04-29 18:57 33.43729 132.34685 35050 ft 541 kts 65°
2026-04-29 18:58 33.46534 132.43067 35025 ft 541 kts 65°
2026-04-29 18:58 33.49317 132.51389 35035 ft 541 kts 65°
2026-04-29 18:59 33.52109 132.59761 35031 ft 540 kts 65°
2026-04-29 18:59 33.54896 132.68140 35037 ft 541 kts 65°
2026-04-29 19:00 33.57678 132.76528 35037 ft 541 kts 65°
2026-04-29 19:00 33.60436 132.84869 35033 ft 541 kts 65°
2026-04-29 19:01 33.63202 132.93274 35033 ft 543 kts 66°
2026-04-29 19:01 33.65274 133.02032 35034 ft 548 kts 78°
2026-04-29 19:02 33.66233 133.09561 35027 ft 548 kts 80°
2026-04-29 19:02 33.67532 133.20149 35035 ft 548 kts 80°
2026-04-29 19:03 33.68707 133.29205 35025 ft 548 kts 79°
2026-04-29 19:03 33.69889 133.38206 34728 ft 550 kts 79°
2026-04-29 19:04 33.70480 133.42741 34223 ft 547 kts 80°
2026-04-29 19:04 33.71059 133.47232 33750 ft 541 kts 80°
2026-04-29 19:04 33.71631 133.51667 33295 ft 535 kts 80°
2026-04-29 19:04 33.72202 133.56071 32816 ft 530 kts 80°
2026-04-29 19:05 33.72769 133.60430 32372 ft 525 kts 80°
2026-04-29 19:05 33.73330 133.64743 31908 ft 521 kts 80°
2026-04-29 19:05 33.73886 133.69030 31481 ft 516 kts 80°
2026-04-29 19:05 33.74428 133.73223 31063 ft 512 kts 80°
2026-04-29 19:06 33.74970 133.77435 30642 ft 507 kts 80°
2026-04-29 19:06 33.75506 133.81615 30265 ft 503 kts 80°
2026-04-29 19:06 33.76565 133.89889 29307 ft 497 kts 81°
2026-04-29 19:07 33.77087 133.93992 28826 ft 493 kts 81°
2026-04-29 19:07 33.77428 133.96684 28539 ft 490 kts 81°
2026-04-29 19:07 33.78104 134.02021 27947 ft 485 kts 81°
2026-04-29 19:07 33.78609 134.06021 27539 ft 481 kts 81°
2026-04-29 19:08 33.79110 134.09994 27112 ft 479 kts 81°
2026-04-29 19:08 33.79607 134.13947 26668 ft 476 kts 81°
2026-04-29 19:08 33.80098 134.17868 26269 ft 473 kts 81°
2026-04-29 19:08 33.80693 134.21751 25843 ft 470 kts 75°
2026-04-29 19:09 33.81620 134.25516 25448 ft 467 kts 69°
2026-04-29 19:09 33.82792 134.29083 25074 ft 463 kts 63°
2026-04-29 19:09 33.84222 134.32549 24669 ft 460 kts 60°
2026-04-29 19:09 33.85681 134.35975 24255 ft 459 kts 60°
2026-04-29 19:10 33.87134 134.39401 23806 ft 459 kts 60°
2026-04-29 19:10 33.88571 134.42831 23317 ft 459 kts 61°
2026-04-29 19:10 33.89996 134.46273 22850 ft 457 kts 62°
2026-04-29 19:10 33.91390 134.49658 22391 ft 455 kts 62°
2026-04-29 19:11 33.92794 134.53061 21946 ft 453 kts 61°
2026-04-29 19:11 33.94200 134.56449 21513 ft 450 kts 61°
2026-04-29 19:11 33.95604 134.59822 21067 ft 448 kts 61°
2026-04-29 19:11 33.96999 134.63176 20644 ft 446 kts 61°
2026-04-29 19:12 33.98384 134.66512 20207 ft 444 kts 61°
2026-04-29 19:12 33.99764 134.69845 19766 ft 443 kts 61°
2026-04-29 19:12 34.01134 134.73168 19324 ft 442 kts 61°
2026-04-29 19:12 34.02035 134.75374 19037 ft 442 kts 61°
2026-04-29 19:13 34.03825 134.79782 18435 ft 441 kts 61°
2026-04-29 19:13 34.05174 134.83111 17943 ft 441 kts 61°
2026-04-29 19:13 34.06519 134.86431 17434 ft 441 kts 61°
2026-04-29 19:13 34.07871 134.89768 16879 ft 442 kts 61°
2026-04-29 19:14 34.09203 134.93056 16409 ft 440 kts 61°
2026-04-29 19:14 34.10546 134.96374 15961 ft 438 kts 61°
2026-04-29 19:14 34.11879 134.99671 15509 ft 436 kts 61°
2026-04-29 19:14 34.13207 135.02958 15049 ft 434 kts 61°
2026-04-29 19:15 34.14528 135.06231 14603 ft 433 kts 61°
2026-04-29 19:15 34.15844 135.09493 14143 ft 432 kts 61°
2026-04-29 19:15 34.17157 135.12751 13665 ft 431 kts 61°
2026-04-29 19:15 34.18467 135.16004 13173 ft 429 kts 61°
2026-04-29 19:16 34.19769 135.19239 12679 ft 427 kts 62°
2026-04-29 19:16 34.21083 135.22409 12225 ft 416 kts 56°
2026-04-29 19:16 34.22828 135.25128 11784 ft 404 kts 38°
2026-04-29 19:16 34.25028 135.27150 11365 ft 391 kts 24°
2026-04-29 19:17 34.27341 135.28777 10928 ft 384 kts 25°
2026-04-29 19:17 34.29544 135.30519 10493 ft 368 kts 28°
2026-04-29 19:17 34.31606 135.32236 10148 ft 350 kts 29°
2026-04-29 19:17 34.33550 135.33858 10023 ft 339 kts 29°
2026-04-29 19:18 34.35493 135.35462 9774 ft 336 kts 29°
2026-04-29 19:18 34.36796 135.36530 9593 ft 334 kts 28°
2026-04-29 19:18 34.39292 135.38574 9492 ft 320 kts 28°
2026-04-29 19:18 34.41089 135.40046 9211 ft 305 kts 28°
2026-04-29 19:19 34.42823 135.41465 8721 ft 298 kts 28°
2026-04-29 19:19 34.44409 135.43072 8102 ft 301 kts 49°
2026-04-29 19:19 34.45472 135.45255 7633 ft 300 kts 60°
2026-04-29 19:19 34.46452 135.47488 7284 ft 301 kts 59°
2026-04-29 19:20 34.47452 135.49714 6946 ft 301 kts 59°
2026-04-29 19:20 34.48454 135.51922 6671 ft 296 kts 58°
2026-04-29 19:20 34.49451 135.54104 6283 ft 295 kts 58°
2026-04-29 19:20 34.50443 135.56267 5922 ft 292 kts 58°
2026-04-29 19:21 34.51423 135.58402 5621 ft 287 kts 58°
2026-04-29 19:21 34.52388 135.60503 5290 ft 283 kts 58°
2026-04-29 19:21 34.53325 135.62545 4983 ft 278 kts 58°
2026-04-29 19:21 34.54461 135.64324 4772 ft 258 kts 34°
2026-04-29 19:22 34.56009 135.65224 4669 ft 240 kts 11°
2026-04-29 19:22 34.57609 135.65469 4565 ft 226 kts 358°
2026-04-29 19:22 34.59137 135.65476 4450 ft 212 kts 352°
2026-04-29 19:22 34.60450 135.64912 4391 ft 193 kts 322°
2026-04-29 19:23 34.61485 135.63936 4275 ft 187 kts 319°
2026-04-29 19:23 34.62465 135.62917 4034 ft 183 kts 316°
2026-04-29 19:23 34.63384 135.61864 3794 ft 181 kts 314°
2026-04-29 19:23 34.64291 135.60787 3552 ft 184 kts 315°
2026-04-29 19:24 34.65205 135.59690 3322 ft 185 kts 315°
2026-04-29 19:24 34.66112 135.58597 3079 ft 182 kts 315°
2026-04-29 19:24 34.66996 135.57530 2823 ft 177 kts 315°
2026-04-29 19:24 34.67856 135.56493 2580 ft 171 kts 316°
2026-04-29 19:25 34.68686 135.55491 2357 ft 165 kts 317°
2026-04-29 19:25 34.69486 135.54525 2143 ft 160 kts 317°
2026-04-29 19:25 34.70280 135.53568 1959 ft 161 kts 317°
2026-04-29 19:25 34.71078 135.52605 1705 ft 159 kts 318°
2026-04-29 19:26 34.71831 135.51694 1477 ft 146 kts 318°
2026-04-29 19:26 34.72522 135.50862 1325 ft 138 kts 319°
2026-04-29 19:26 34.73211 135.50028 1126 ft 140 kts 318°
2026-04-29 19:26 34.73904 135.49193 950 ft 141 kts 318°
2026-04-29 19:27 34.74621 135.48375 798 ft 141 kts 318°
2026-04-29 19:27 34.75301 135.47505 623 ft 145 kts 315°
2026-04-29 19:27 34.75997 135.46651 452 ft 139 kts 318°
2026-04-29 19:27 34.76665 135.45856 226 ft 131 kts 316°
2026-04-29 19:28 34.77315 135.45067 88 ft 132 kts 317°
2026-04-29 19:28 34.77913 135.44345 51 ft 104 kts 315°
2026-04-29 19:28 34.78317 135.43859 49 ft 59 kts 315°
2026-04-29 19:28 34.78527 135.43612 52 ft 23 kts 323°
2026-04-29 19:29 34.78645 135.43533 53 ft 19 kts 336°
2026-04-29 19:29 34.78767 135.43467 51 ft 19 kts 335°
2026-04-29 19:29 34.78848 135.43428 51 ft 19 kts 347°
2026-04-29 19:29 34.79014 135.43464 53 ft 17 kts 31°
2026-04-29 19:30 34.79068 135.43528 51 ft 15 kts 59°
2026-04-29 19:30 34.79073 135.43595 49 ft 6 kts 106°
2026-04-29 19:30 34.79060 135.43655 50 ft 8 kts 101°
2026-04-29 19:30 34.79057 135.43728 49 ft 9 kts 80°
2026-04-29 19:31 34.79079 135.43788 51 ft 7 kts 64°
2026-04-29 19:31 34.79100 135.43844 48 ft 8 kts 66°
2026-04-29 19:31 34.79119 135.43898 47 ft 5 kts 66°
2026-04-29 19:31 34.79123 135.43911 49 ft 0 kts 66°